Regional Weather Roundup
Issued by NWS Albany, NY

Home | Current Version | Previous Version | Text Only | Print | Product List | Glossary On
Versions: 1 2 3 4 5 6 7 8 9 10 11 12 13 14 15 16 17 18 19 20 21 22 23 24 25 26 27 28
000
ASUS41 KALY 230810
RWRALY

NEW YORK STATE HOURLY WEATHER ROUNDUP
NATIONAL WEATHER SERVICE ALBANY NY
400 AM EDT SUN APR 23 2017

NOTE: "FAIR" INDICATES FEW OR NO CLOUDS BELOW 12,000 FEET WITH NO
SIGNIFICANT WEATHER AND/OR NO OBSTRUCTIONS TO VISIBILITY.

NYZ032-033-038>043-046>054-057>066-NYZ062>081-082-084-230900-
EAST


CITY           SKY/WX    TMP DP  RH WIND       PRES   REMARKS
ALBANY         PTCLDY    41  33  73 N5        30.07S
GLENS FALLS    CLEAR     38  33  82 CALM      30.05F
POUGHKEEPSIE   CLOUDY    37  35  92 CALM      30.05S
NEWBURGH       CLEAR     37  36  93 CALM      30.06R
MONTGOMERY     PTCLDY    36  35  96 CALM      30.05R
WHITE PLAINS   MOCLDY    45  35  68 N13       30.02R
ISLIP          PTCLDY    45  40  82 N7        30.02R
NEW YORK CITY  MOCLDY    49  38  65 N8        30.03S
CENTRAL PARK   CLOUDY    47  37  68 VRB5      30.06S
$$

NYZ005>009-017-018-044>046-055-056-230900-
CENTRAL


CITY           SKY/WX    TMP DP  RH WIND       PRES   REMARKS
FULTON         CLEAR     32  31  96 CALM      30.07F
SYRACUSE       PTCLDY    35  33  92 CALM      30.07F
ROME           CLEAR     31  30  96 CALM      30.09F
ELMIRA         CLEAR     30  28  92 CALM      30.09S FOG
BINGHAMTON     CLEAR     33  31  92 NW7       30.05F WCI  27
MONTICELLO     CLEAR     36  34  93 N5        30.06S WCI  32
$$

NYZ026>034-041>043-087-230900-
NORTH


CITY           SKY/WX    TMP DP  RH WIND       PRES   REMARKS
WATERTOWN      CLEAR     29  29 100 CALM      30.06F
FORT DRUM      NOT AVBL
OGDENSBURG     FOG       33  32  98 CALM      30.06S VSB 1/2
MASSENA        CLEAR     32  30  92 CALM      30.07S
SARANAC LAKE   FOG       28  27  96 CALM      30.01F VSB 3/4
PLATTSBURGH    CLEAR     38  35  89 CALM      30.04F
$$

NYZ001>004-010>016-019>021-085-230900-
WEST


CITY           SKY/WX    TMP DP  RH WIND       PRES   REMARKS
NIAGARA FALLS  CLEAR     38  33  82 S6        30.09F WCI  33
BUFFALO        CLEAR     36  32  85 S7        30.09F WCI  30
DUNKIRK        CLEAR     31  30  96 S3        30.11F
JAMESTOWN      CLEAR     34  30  86 CALM      30.08S
WELLSVILLE     CLEAR     35  30  82 CALM      30.08S
ROCHESTER      PTCLDY    38  34  85 W7        30.09S WCI  33
PENN YAN       CLEAR     38  32  79 SW7       30.08S WCI  33
$$

             KEY
       WCI = WIND CHILL INDEX
       VSB = VISIBILITY
       HX  = HEAT INDEX
$$




USA.gov is the U.S. government's official web portal to all federal, state and local government web resources and services.